Location: Newark
(5.5500°N, 0.2500°W)
Time: 16:21:08
(UTC+00:00)

Hubble Space Telescope - Pass Details

Date: 25 September 2019
Orbit: 536 x 540 km, 28.5° (Epoch: 13 October)

Event Time Altitude Azimuth Distance (km) Brightness Sun altitude
Exits shadow 05:22:57 - 305° (NW) 2,234 3.4 -7.5°
Reaches altitude 10° 05:24:08 10° 307° (NW) 1,771 2.9 -7.2°
Maximum altitude 05:28:12 65° 30° (NNE) 586 1.1 -6.2°
Drops below altitude 10° 05:32:16 10° 111° (ESE) 1,775 4.8 -5.2°
Sets 05:34:33 0° 114° (ESE) 2,667 5.7 -4.6°
